Cloud_Cover
5 4 38 72 100 100 100 100 100 100 100 100 100 100 58 98 89 60 12 27 5 5
91 97 92 100 100 100 100 100 100 100 100 100 100 100 100 100 100 100 100 100 5 5
100 100 100 100 100 100 100 100 100 100 100 100 100 100 100 100 100 100 100 33 26 5
100 100 100 100 100 100 100 100 100 100 100 100 100 100 100 100 100 100 100 31 5 0
100 100 100 73 100 100 100 100 100 100 100 100 100 100 100 100 100 100 45 5 3 0
100 100 100 100 100 100 100 100 100 100 100 100 100 100 100 100 100 26 85 38 5 3
100 100 100 99 100 100 100 100 100 100 100 100 100 100 100 100 82 98 100 100 20 5
100 100 100 100 100 100 100 100 100 100 100 100 100 100 100 100 100 100 100 100 100 39
100 100 100 100 100 100 100 100 100 100 100 100 100 100 100 100 100 100 100 100 100 11
88 100 100 100 100 100 100 100 100 100 100 100 100 100 99 100 100 100 100 100 97 5
100 100 100 100 100 100 100 100 100 100 98 100 90 5 28 90 100 100 100 100 5 5
100 100 100 100 100 100 100 100 100 100 100 76 2 5 5 9 56 66 56 5 6 5
100 100 100 100 100 100 100 100 100 100 100 5 5 5 5 5 5 5 5 5 6 16
100 100 100 100 100 100 100 100 100 100 98 5 4 1 4 19 7 5 6 5 5 5